Waycross, GA

7:27 AM EDT on July 28, 2017 (GMT -0400)
Waycross-Ware County

Weather History for KAYS - December, 2013

Change the Weather History Date:

Friday, December 27, 2013

  Actual Average (KAMG) Record (KAMG)
Temperature  
Mean Temperature 56 °F -  
Max Temperature 60 °F 61 °F 83 °F (2015)
Min Temperature 51 °F 38 °F 21 °F (2001)
Degree Days  
Heating Degree Days 10    
Growing Degree Days 6 (Base 50)    
Moisture  
Dew Point 47 °F    
Average Humidity 74    
Maximum Humidity 88    
Minimum Humidity 63    
Precipitation  
Precipitation 0.00 in - - ()
Sea Level Pressure  
Sea Level Pressure 30.33 in    
Wind  
Wind Speed 5 mph (NE)    
Max Wind Speed 9 mph    
Max Gust Speed -    
Visibility 10 miles    
Events      
Averages and records for this station are not official NWS values.
T = Trace of Precipitation, MM = Missing Value Source: NWS Daily Summary

Daily Weather History Graph

Daily Weather History Graph

Search for Another Location

Airport or City:

Trip Planner

Search our weather history database for the weather conditions in past years. The results will help you decide how hot, cold, wet, or windy it might be!

Date:

Astronomy

Dec. 27, 2013 Rise Set
Actual Time 7:26 AM EST 5:34 PM EST
Civil Twilight 7:00 AM EST 6:01 PM EST
Nautical Twilight 6:29 AM EST 6:31 PM EST
Astronomical Twilight 6:00 AM EST 7:01 PM EST
Moon 2:09 AM EST (12/27) 1:33 PM EST (12/27)
Length of Visible Light 11h 01m
Length of Day
10h 07m
Waning Crescent, 28% of the Moon is Illuminated
Dec 27
Waning Crescent
Jan 1
New
Jan 7
First Quarter
Jan 15
Full
Jan 24
Last Quarter

Hourly Weather History & Observations

Time (EST) Temp. Dew Point Humidity Pressure Visibility Wind Dir Wind Speed Gust Speed Precip Events Conditions
12:15 AM 51.8 °F 48.2 °F 88% 30.29 in 10.0 mi NNE 5.8 mph - N/A   Unknown
12:35 AM 51.8 °F 48.2 °F 88% 30.29 in 10.0 mi NNE 3.5 mph - N/A   Unknown
12:55 AM 51.8 °F 48.2 °F 88% 30.30 in 10.0 mi NNE 4.6 mph - N/A   Unknown
1:15 AM 51.8 °F 48.2 °F 88% 30.29 in 10.0 mi NNE 5.8 mph - N/A   Unknown
1:35 AM 51.8 °F 48.2 °F 88% 30.28 in 10.0 mi NNE 6.9 mph - N/A   Unknown
1:55 AM 51.8 °F 48.2 °F 88% 30.29 in 10.0 mi Calm Calm - N/A   Unknown
2:15 AM 53.6 °F 48.2 °F 82% 30.28 in 10.0 mi NNE 8.1 mph - N/A   Unknown
2:35 AM 51.8 °F 46.4 °F 82% 30.28 in 10.0 mi NNE 4.6 mph - N/A   Unknown
2:55 AM 51.8 °F 46.4 °F 82% 30.29 in 10.0 mi NNE 5.8 mph - N/A   Unknown
3:15 AM 51.8 °F 46.4 °F 82% 30.29 in 10.0 mi NNE 8.1 mph - N/A   Unknown
3:35 AM 51.8 °F 46.4 °F 82% 30.30 in 10.0 mi NNE 5.8 mph - N/A   Unknown
3:55 AM 51.8 °F 46.4 °F 82% 30.29 in 10.0 mi NNE 6.9 mph - N/A   Unknown
4:15 AM 51.8 °F 46.4 °F 82% 30.28 in 10.0 mi NNE 8.1 mph - N/A   Unknown
4:35 AM 53.6 °F 44.6 °F 72% 30.29 in 10.0 mi NE 5.8 mph - N/A   Unknown
4:55 AM 51.8 °F 44.6 °F 76% 30.28 in 10.0 mi ENE 5.8 mph - N/A   Unknown
5:15 AM 51.8 °F 44.6 °F 76% 30.28 in 10.0 mi Calm Calm - N/A   Unknown
5:35 AM 51.8 °F 44.6 °F 76% 30.29 in 10.0 mi NNE 3.5 mph - N/A   Unknown
5:55 AM 51.8 °F 44.6 °F 76% 30.29 in 10.0 mi NNE 4.6 mph - N/A   Unknown
6:15 AM 51.8 °F 44.6 °F 76% 30.30 in 10.0 mi NNE 4.6 mph - N/A   Unknown
6:35 AM 51.8 °F 44.6 °F 76% 30.30 in 10.0 mi NNE 4.6 mph - N/A   Unknown
6:55 AM 51.8 °F 44.6 °F 76% 30.30 in 10.0 mi NNE 6.9 mph - N/A   Unknown
7:15 AM 51.8 °F 46.4 °F 82% 30.32 in 10.0 mi NNE 5.8 mph - N/A   Unknown
7:35 AM 51.8 °F 44.6 °F 76% 30.32 in 10.0 mi NNE 6.9 mph - N/A   Unknown
7:55 AM 51.8 °F 44.6 °F 76% 30.32 in 10.0 mi NE 5.8 mph - N/A   Unknown
8:15 AM 51.8 °F 44.6 °F 76% 30.34 in 10.0 mi NE 5.8 mph - N/A   Unknown
8:35 AM 51.8 °F 44.6 °F 76% 30.34 in 10.0 mi NE 5.8 mph - N/A   Unknown
8:55 AM 51.8 °F 44.6 °F 76% 30.34 in 10.0 mi NE 8.1 mph - N/A   Unknown
9:15 AM 53.6 °F 44.6 °F 72% 30.36 in 10.0 mi NE 3.5 mph - N/A   Unknown
9:35 AM 53.6 °F 44.6 °F 72% 30.37 in 10.0 mi NE 5.8 mph - N/A   Unknown
9:55 AM 53.6 °F 44.6 °F 72% 30.38 in 10.0 mi NNE 6.9 mph - N/A   Unknown
10:15 AM 53.6 °F 44.6 °F 72% 30.37 in 10.0 mi NE 5.8 mph - N/A   Unknown
10:35 AM 55.4 °F 44.6 °F 67% 30.38 in 10.0 mi ENE 5.8 mph - N/A   Unknown
10:55 AM 55.4 °F 44.6 °F 67% 30.38 in 10.0 mi NNE 8.1 mph - N/A   Unknown
11:15 AM 55.4 °F 44.6 °F 67% 30.37 in 10.0 mi NNE 9.2 mph - N/A   Overcast
11:35 AM 55.4 °F 44.6 °F 67% 30.36 in 10.0 mi NE 6.9 mph - N/A   Overcast
11:55 AM 57.2 °F 46.4 °F 67% 30.36 in 10.0 mi NNE 5.8 mph - N/A   Overcast
12:15 PM 57.2 °F 46.4 °F 67% 30.35 in 10.0 mi NNE 5.8 mph - N/A   Overcast
12:35 PM 57.2 °F 46.4 °F 67% 30.34 in 10.0 mi NE 3.5 mph - N/A   Overcast
12:55 PM 57.2 °F 46.4 °F 67% 30.33 in 10.0 mi NE 3.5 mph - N/A   Overcast
1:15 PM 59.0 °F 48.2 °F 67% 30.32 in 10.0 mi North 5.8 mph - N/A   Overcast
1:35 PM 59.0 °F 48.2 °F 67% 30.32 in 10.0 mi ENE 5.8 mph - N/A   Overcast
1:55 PM 59.0 °F 48.2 °F 67% 30.31 in 10.0 mi ENE 8.1 mph - N/A   Overcast
2:15 PM 59.0 °F 48.2 °F 67% 30.30 in 10.0 mi NE 8.1 mph - N/A   Overcast
2:35 PM 59.0 °F 48.2 °F 67% 30.30 in 10.0 mi NE 8.1 mph - N/A   Overcast
2:55 PM 60.8 °F 48.2 °F 63% 30.30 in 10.0 mi NE 5.8 mph - N/A   Overcast
3:15 PM 60.8 °F 48.2 °F 63% 30.31 in 10.0 mi NE 6.9 mph - N/A   Overcast
3:35 PM 60.8 °F 50.0 °F 68% 30.30 in 10.0 mi NE 5.8 mph - N/A   Overcast
3:55 PM 60.8 °F 50.0 °F 68% 30.32 in 10.0 mi NE 4.6 mph - N/A   Overcast
4:15 PM 60.8 °F 50.0 °F 68% 30.33 in 10.0 mi NE 4.6 mph - N/A   Overcast
4:35 PM 60.8 °F 51.8 °F 72% 30.32 in 10.0 mi ENE 4.6 mph - N/A   Overcast
4:55 PM 59.0 °F 51.8 °F 77% 30.32 in 10.0 mi ENE 3.5 mph - N/A   Overcast
5:15 PM 59.0 °F 51.8 °F 77% 30.33 in 10.0 mi ENE 3.5 mph - N/A   Overcast
5:35 PM 57.2 °F 51.8 °F 82% 30.33 in 10.0 mi Calm Calm - N/A   Mostly Cloudy
5:55 PM 57.2 °F 51.8 °F 82% 30.34 in 10.0 mi NNE 3.5 mph - N/A   Mostly Cloudy
6:15 PM 59.0 °F 51.8 °F 77% 30.34 in 10.0 mi NNE 4.6 mph - N/A   Overcast
6:35 PM 57.2 °F 50.0 °F 77% 30.34 in 10.0 mi NE 3.5 mph - N/A   Mostly Cloudy
6:55 PM 57.2 °F 50.0 °F 77% 30.33 in 10.0 mi NE 6.9 mph - N/A   Scattered Clouds
7:15 PM 57.2 °F 48.2 °F 72% 30.32 in 10.0 mi NE 4.6 mph - N/A   Clear
7:35 PM 57.2 °F 48.2 °F 72% 30.34 in 10.0 mi NE 5.8 mph - N/A   Scattered Clouds
7:55 PM 57.2 °F 46.4 °F 67% 30.35 in 10.0 mi NE 6.9 mph - N/A   Unknown
8:15 PM 57.2 °F 46.4 °F 67% 30.36 in 10.0 mi NNE 9.2 mph - N/A   Unknown
8:35 PM 57.2 °F 44.6 °F 63% 30.36 in 10.0 mi NE 6.9 mph - N/A   Unknown
8:55 PM 55.4 °F 44.6 °F 67% 30.36 in 10.0 mi ENE 6.9 mph - N/A   Unknown
9:15 PM 55.4 °F 44.6 °F 67% 30.35 in 10.0 mi ENE 8.1 mph - N/A   Unknown
9:35 PM 53.6 °F 44.6 °F 72% 30.36 in 10.0 mi ENE 4.6 mph - N/A   Unknown
9:55 PM 53.6 °F 44.6 °F 72% 30.36 in 10.0 mi NE 3.5 mph - N/A   Unknown
10:15 PM 53.6 °F 44.6 °F 72% 30.36 in 10.0 mi NE 4.6 mph - N/A   Unknown
10:35 PM 53.6 °F 42.8 °F 67% 30.36 in 10.0 mi NE 4.6 mph - N/A   Unknown
10:55 PM 53.6 °F 42.8 °F 67% 30.36 in 10.0 mi NE 4.6 mph - N/A   Unknown
11:15 PM 51.8 °F 42.8 °F 71% 30.35 in 10.0 mi ENE 3.5 mph - N/A   Unknown
11:35 PM 51.8 °F 42.8 °F 71% 30.35 in 10.0 mi ENE 4.6 mph - N/A   Unknown
11:55 PM 51.8 °F 42.8 °F 71% 30.35 in 10.0 mi Calm Calm - N/A   Unknown